STARLINK-33874, 63825

Orbit data source: Space-Track

STARLINK-33874, 63825 is a payload satellite owned by SpaceX/Seattle (US) in LEO that was launched on Sun, 04 May 2025 UTC via an FALCON 9 launch vehicle from the Air Force Eastern Test Range (AFETR). Payload-class satellites include a variety of spacecraft equipped with specific instruments for various scientific and technological missions. These include communications satellites like Starlink; space stations such as the ISS; scientific satellites like the Hubble; Earth observation satellites from companies like Planet Labs, Umbra, and HawkEye 360; GPS; miniature CubeSats for education and research; and military/defense satellites.

Loading next visibility...
Identifier
63825, 2025-092X
Orbit
LEO
Last TLE update
9 hours ago
Origin
Manufacturer
SpaceX/Seattle
Mission
Operational spacecraft
Bus & Motor
STARLINK V2MO, Unknown motor
Mass
575 kg wet, ~530 kg dry
Launch date (UTC)
2025-05-04 (1 week ago)
Launch vehicle
FALCON 9
Launch site
Air Force Eastern Test Range (AFETR)
Object type
Payload
Rocket body
Debris
Shape & HBR
Unknown
Radar Cross Section
Medium (>0.1 m² and <1 m²)

Expand to show TLE details & history

TLE from 9 hours ago
0 STARLINK-33874
1 63825U 25092X   25133.16668981 -.01020071  00000-0 -37943-2 0  9992
2 63825  43.0009  78.5318 0001233 274.8994  60.7592 15.89370389  2594
Epoch: 2025-05-13T04:00Z
Definitive object data (Epoch: 2025-05-13T04:00:01.999Z)
Latitude
-16.46428°
Longitude
128.98598°
Altitude
306.965 km
Speed
7.725 km/s
True Right ascension
04h 00m 39s
True Declination
-16° 21' 53"
Sunlit
Object was in daylight at TLE epoch
Visualization TLE readout
Latitude
27.38517°
Longitude
178.47478°
Altitude
307.125 km
Speed
7.728 km/s
Apparent Right ascension
08h 24m 47s
Apparent Declination
-5° 37' 26"
Sunlit
Object is in daylight
Visualization observer readout
Local Sidereal Time
21:45:35
Azimuth
33.251° NE
Elevation
-51.189°
Doppler factor
1
Orbital elements
Apogee altitude
306.868 km
Perigee altitude
305.22 km
Semi-major axis
6,684.181 km
Eccentricity
0.0001233
Inclination
43.0009°
RAAN
78.5318°
Arg. of periapsis
274.8994°
True anomaly
60.77153°
Mean anomaly
60.7592°
Eccentric anomaly
60.76536°
Mean motion
3.97165 °/min
BSTAR
-0.0037943
Orbital period
90.64 mins
Loading maneuver chart data...
Loading SW <> Apogee altitude chart data...
Loading historical data...
Loading historical data...
Loading historical data...
Loading historical data...
Loading historical data...
Loading historical data...
Loading historical data...

STARLINK-33874 Visibility forecast

Observer location: undefined°, undefined°

Span
Click to sort rows by Start time (UTC) header in descending order
Start Az.
Max El. time (UTC)
Max El. Az.
Max El.
End time (UTC)
End Az.
4 mins2025-05-13 23:56:51.370Z225.185° WSW2025-05-13 23:58:51.370Z163.572° S33.812°2025-05-14 00:00:51.370Z86.34° E
4 mins2025-05-14 03:07:51.370Z302.555° NW2025-05-14 03:08:51.370Z333.417° NNW32.666°2025-05-14 03:11:51.370Z84.249° E
|